STARLINK-2295 (48036 NORAD) Tracking and Keplerian Element Data

This shows tracking and keplerian element data for the satellite.

Feedback or suggestion? Click here.




ElementValue
Catalog48036
NameSTARLINK-2295
Epoch Orbit1528
Epoch Day173.92276528
Epoch Year2021
RAAN135.5312
Inclination53.0562
Eccentricity0.0001617
Argument of Perigee75.3898
Mean Anonmoly284.7269
Mean Motion15.03959526
Decay Rate1.97E-06
L11 48036U 21024BM 21173.92276528 .00000197 00000-0 33843-4 0 9997
L22 48036 53.0562 135.5312 0001617 75.3898 284.7269 15.03959526 15288

Live tracking and technical data element details for STARLINK-2295 (NORAD 48036). STARLINK-2295 can be tracked NOW for your location showing map with azimuth and elevation plus other details from your city location.

Track the satellite on the map from your city or location and see movement details for azimuth, elevation, latitude, longitude, range, height, and movement on the map or in text.







IsCatalogInMostPopularTable: catalog: 48036, numindb: 46
Update: records affected: 1



GetName: 48036 STARLINK-2295

Hit Count: updated at: Thu, 24 Jun 2021 02:33:40 GMT